Regional Weather Roundup
Issued by NWS Sioux Falls, SD

Home | Current Version | Previous Version | Graphics & Text | Print | Product List | Glossary On
Versions: 1 2 3 4 5 6 7 8 9 10 11 12 13 14 15 16 17 18 19 20 21 22 23 24 25 26 27 28 29 30 31 32 33 34 35 36 37 38 39 40 41 42 43 44 45 46 47 48 49 50
000
ASUS43 KFSD 230202
RWRFSD

WEATHER ROUNDUP FOR SE SOUTH DAKOTA/SW MINNESOTA/NW IOWA
NATIONAL WEATHER SERVICE SIOUX FALLS SD
900 PM CDT WED MAR 22 2017

NOTE: "FAIR" INDICATES FEW OR NO CLOUDS BELOW 12,000 FEET WITH NO
SIGNIFICANT WEATHER AND OR OBSTRUCTIONS TO VISIBILITY.


SDZ038>040-050-052>070-230300-
SOUTHEAST SOUTH DAKOTA

CITY           SKY/WX    TMP DP  RH WIND       PRES   REMARKS
BROOKINGS      CLOUDY    35  24  64 SE24G31   30.09F WCI  23
CHAMBERLAIN    CLOUDY    44  29  57 E9        29.95S
HURON          PTCLDY    37  26  64 SE18G26   30.03S
MADISON        CLOUDY    36  28  75 SE23G30   30.08S
MITCHELL       CLOUDY    40  28  62 SE22G30   30.03F
SIOUX FALLS    CLOUDY    39  26  59 SE16G25   30.13F
WINNER         FAIR      50  30  46 S14       29.92S
YANKTON        CLOUDY    43  27  52 SE17      30.09S
$$

MNZ071-072-080-081-089-090-097-098-230300-
SOUTHWEST MINNESOTA

CITY           SKY/WX    TMP DP  RH WIND       PRES   REMARKS
FAIRMONT       CLOUDY    36  24  62 SE16      30.24F
JACKSON        CLOUDY    34  27  75 SE17      30.21F WCI  23
MARSHALL       CLOUDY    35  26  69 SE18G24   30.17F WCI  24
MONTEVIDEO     CLOUDY    36  25  64 S23G29    30.18F
PIPESTONE      CLOUDY    36  21  55 S18G26    30.12S
REDWOOD FALLS  CLOUDY    36  24  62 SE15      30.21F
TRACY          CLOUDY    36  28  72 SE15G21   30.18F
WINDOM         MOCLDY    36  25  64 SE16      30.20S
WORTHINGTON    CLOUDY    36  23  59 SE16G22   30.18F
$$

IAZ001>003-012>014-020>022-031-032-NEZ013-014-SDZ071-230300-
NORTHWEST IOWA

CITY           SKY/WX    TMP DP  RH WIND       PRES   REMARKS
CHEROKEE       CLOUDY    38  25  59 SE8       30.20S
DENISON        CLOUDY    41  25  52 SE9G16    30.19R
ESTHERVILLE    CLOUDY    34  27  75 SE15      30.22S WCI  24
LE MARS        PTCLDY    39  27  60 SE10G16   30.17F
ORANGE CITY    PTCLDY    37  27  65 SE9       30.17S
SHELDON        CLOUDY    37  28  70 SE16G23   30.17R
SIOUX CITY     CLOUDY    42  29  59 SE15      30.16S
SPENCER        CLOUDY    38  23  55 SE15      30.21S
STORM LAKE     CLOUDY    39  23  52 SE17      30.20S
$$

ABBREVIATIONS USED IN REMARKS
   TC - TEMPERATURE IN CELSIUS
  WCI - WIND CHILL INDEX
   HX - HEAT INDEX
  VSB - VISIBILITY





USA.gov is the U.S. government's official web portal to all federal, state and local government web resources and services.